Date String (YYYY-MM-DD hh:mm:ss) UTC,Instrument flags,absolute air pressure of the measurement (hPa),sample flow rate (lpm),inlet stack bypass flow (lpm),air temperature of the measurement (°C),ambient temperature measured by the external sensor (°C),aerosol sample conditioner tube jacket temperature (°C),OPC LED temperature (°C),internal box temperature (°C),relative humidity of the measurement (%),span deviation,mass concentration of particles derived from Lorenz-Mie calculation of OPC scattering (μg/m³),mass concentration of particles derived from Lorenz-Mie calculation of OPC scattering (μg/m³),mass concentration of particles derived from Lorenz-Mie calculation of OPC scattering (μg/m³)
DateTimeUTC,F1_M11,P_M11,Q1_M11,Q2_M11,T1_M11,T2_M11,T3_M11,T4_M11,T5_M11,U1_M11,ZSPAN_M11,X0_M11,X2_M11,X1_M11
2024-04-26 11:00:00,SystemResetWarning,0815.2,5.01,000.00,025.0,024.3,000.0,033.5,026.9,017.6,0000.0,0002.61,0001.60,0001.17
2024-04-26 11:01:00,SystemResetWarning,0815.2,5.01,000.00,025.0,024.3,000.0,033.5,026.9,017.4,0000.0,0002.62,0001.61,0001.16
2024-04-26 11:02:00,SystemResetWarning,0815.2,5.00,000.00,025.0,024.3,000.0,033.5,026.9,017.3,0000.0,0002.58,0001.58,0001.15
2024-04-26 11:03:00,SystemResetWarning,0815.2,4.99,000.00,025.0,024.3,000.0,033.5,026.9,017.0,0000.0,0002.56,0001.57,0001.14
2024-04-26 11:04:00,SystemResetWarning,0815.2,5.00,000.00,025.0,024.3,000.0,033.5,026.9,016.6,0000.0,0002.52,0001.53,0001.13
2024-04-26 11:05:00,SystemResetWarning,0815.2,5.01,000.00,025.0,024.3,000.0,033.5,026.9,016.9,0000.0,0002.39,0001.47,0001.12
2024-04-26 11:06:00,SystemResetWarning,0815.2,5.01,000.00,025.0,024.3,000.0,033.6,026.9,016.9,0000.0,0002.50,0001.51,0001.12
2024-04-26 11:07:00,SystemResetWarning,0815.1,5.01,000.00,025.0,024.3,000.0,033.6,026.9,017.3,0000.0,0002.78,0001.59,0001.13
2024-04-26 11:08:00,SystemResetWarning,0815.1,5.00,000.00,025.0,024.3,000.0,033.6,026.9,017.1,0000.0,0002.84,0001.60,0001.13
2024-04-26 11:09:00,SystemResetWarning,0815.1,4.99,000.00,025.0,024.3,000.0,033.6,026.9,017.2,0000.0,0002.75,0001.58,0001.13
2024-04-26 11:10:00,SystemResetWarning,0815.1,4.99,000.00,025.1,024.3,000.0,033.6,026.9,017.5,0000.0,0002.67,0001.58,0001.12
2024-04-26 11:11:00,SystemResetWarning,0815.1,5.00,000.00,025.1,024.3,000.0,033.6,026.9,017.4,0000.0,0002.50,0001.54,0001.10
2024-04-26 11:12:00,SystemResetWarning,0815.1,5.01,000.00,025.1,024.3,000.0,033.6,026.9,017.7,0000.0,0002.40,0001.49,0001.07
2024-04-26 11:13:00,SystemResetWarning,0815.1,4.98,000.00,025.1,024.3,000.0,033.6,026.9,017.2,0000.0,0002.40,0001.49,0001.04
2024-04-26 11:14:00,SystemResetWarning,0815.1,4.99,000.00,025.1,024.3,000.0,033.6,026.9,017.1,0000.0,0002.38,0001.47,0001.01
2024-04-26 11:15:00,SystemResetWarning,0815.1,5.00,000.00,025.1,024.4,000.0,033.6,026.9,017.1,0000.0,0002.41,0001.50,0001.01
2024-04-26 11:16:00,SystemResetWarning,0815.1,5.01,000.00,025.1,024.4,000.0,033.6,026.9,017.3,0000.0,0002.48,0001.51,0001.01
2024-04-26 11:17:00,SystemResetWarning,0815.1,5.00,000.00,025.1,024.4,000.0,033.6,026.9,018.4,0000.0,0002.44,0001.49,0000.99
2024-04-26 11:18:00,SystemResetWarning,0815.0,4.99,000.00,025.1,024.4,000.0,033.6,026.9,017.3,0000.0,0002.18,0001.41,0000.98
2024-04-26 11:19:00,SystemResetWarning,0815.1,4.99,000.00,025.1,024.4,000.0,033.6,026.9,017.4,0000.0,0002.20,0001.44,0000.99
2024-04-26 11:20:00,SystemResetWarning,0815.0,5.00,000.00,025.1,024.4,000.0,033.6,026.9,017.6,0000.0,0002.33,0001.50,0001.01
2024-04-26 11:21:00,SystemResetWarning,0815.0,5.00,000.00,025.1,024.4,000.0,033.6,026.9,017.7,0000.0,0002.33,0001.49,0001.00
2024-04-26 11:22:00,SystemResetWarning,0815.0,5.00,000.00,025.1,024.4,000.0,033.6,026.9,017.1,0000.0,0002.30,0001.47,0001.01
2024-04-26 11:23:00,SystemResetWarning,0814.9,5.00,000.00,025.1,024.4,000.0,033.6,026.9,016.6,0000.0,0002.38,0001.50,0001.03
2024-04-26 11:24:00,SystemResetWarning,0814.9,5.00,000.00,025.1,024.4,000.0,033.6,026.9,016.2,0000.0,0002.44,0001.54,0001.06
2024-04-26 11:25:00,SystemResetWarning,0814.9,5.00,000.00,025.1,024.3,000.0,033.6,026.9,016.1,0000.0,0002.54,0001.61,0001.11
2024-04-26 11:26:00,SystemResetWarning,0814.9,4.99,000.00,025.1,024.3,000.0,033.6,026.9,015.8,0000.0,0002.61,0001.66,0001.15
2024-04-26 11:27:00,SystemResetWarning,0814.9,5.00,000.00,025.1,024.3,000.0,033.6,026.9,017.5,0000.0,0002.74,0001.68,0001.19
2024-04-26 11:28:00,SystemResetWarning,0814.9,5.00,000.00,025.1,024.3,000.0,033.6,026.9,017.6,0000.0,0002.94,0001.72,0001.21
2024-04-26 11:29:00,SystemResetWarning,0814.9,5.00,000.00,025.1,024.3,000.0,033.6,026.9,016.9,0000.0,0003.08,0001.77,0001.23
2024-04-26 11:30:00,SystemResetWarning,0814.9,5.00,000.00,025.1,024.3,000.0,033.6,026.9,017.0,0000.0,0003.14,0001.80,0001.25
2024-04-26 11:31:00,SystemResetWarning,0814.9,5.00,000.00,025.1,024.3,000.0,033.6,026.9,016.5,0000.0,0003.20,0001.82,0001.27
2024-04-26 11:32:00,SystemResetWarning,0814.9,5.00,000.00,025.1,024.3,000.0,033.6,026.9,016.3,0000.0,0003.46,0001.91,0001.30
2024-04-26 11:33:00,SystemResetWarning,0814.9,5.01,000.00,025.1,024.3,000.0,033.6,026.9,017.8,0000.0,0003.55,0001.97,0001.35
2024-04-26 11:34:00,SystemResetWarning,0814.9,5.00,000.00,025.1,024.3,000.0,033.6,026.9,018.0,0000.0,0003.65,0002.01,0001.36
2024-04-26 11:35:00,SystemResetWarning,0814.9,5.00,000.00,025.1,024.3,000.0,033.6,026.9,017.7,0000.0,0003.62,0002.01,0001.37
2024-04-26 11:36:00,SystemResetWarning,0814.9,5.01,000.00,025.1,024.3,000.0,033.6,026.9,017.8,0000.0,0003.69,0002.05,0001.37
2024-04-26 11:37:00,SystemResetWarning,0814.8,5.01,000.00,025.1,024.3,000.0,033.6,026.9,017.7,0000.0,0003.60,0002.00,0001.35
2024-04-26 11:38:00,SystemResetWarning,0814.8,5.01,000.00,025.1,024.3,000.0,033.6,026.9,016.3,0000.0,0003.77,0002.02,0001.34
2024-04-26 11:39:00,SystemResetWarning,0814.9,5.00,000.00,025.1,024.3,000.0,033.6,026.9,016.7,0000.0,0003.70,0002.04,0001.34
2024-04-26 11:40:00,SystemResetWarning,0814.9,5.00,000.00,025.0,024.3,000.0,033.6,026.8,017.3,0000.0,0003.64,0002.06,0001.36
2024-04-26 11:41:00,SystemResetWarning,0814.9,5.00,000.00,025.0,024.3,000.0,033.6,026.8,017.4,0000.0,0003.64,0002.07,0001.35
2024-04-26 11:42:00,SystemResetWarning,0814.9,5.00,000.00,025.0,024.3,000.0,033.6,026.8,020.1,0000.0,0003.53,0002.05,0001.34
2024-04-26 11:43:00,SystemResetWarning,0814.9,4.99,000.00,025.0,024.3,000.0,033.6,026.9,020.1,0000.0,0003.28,0001.98,0001.33
2024-04-26 11:44:00,SystemResetWarning,0814.8,5.00,000.00,025.0,024.3,000.0,033.6,026.9,017.6,0000.0,0003.18,0001.94,0001.32
2024-04-26 11:45:00,SystemResetWarning,0814.8,5.00,000.00,025.1,024.3,000.0,033.6,026.9,018.6,0000.0,0003.08,0001.90,0001.31
2024-04-26 11:46:00,SystemResetWarning,0814.8,5.00,000.00,025.1,024.3,000.0,033.6,026.9,016.9,0000.0,0003.02,0001.87,0001.29
2024-04-26 11:47:00,SystemResetWarning,0814.9,5.00,000.00,025.0,024.3,000.0,033.6,026.9,017.3,0000.0,0003.04,0001.86,0001.30
2024-04-26 11:48:00,SystemResetWarning,0814.8,5.00,000.00,025.0,024.3,000.0,033.6,026.9,017.1,0000.0,0003.13,0001.89,0001.30
2024-04-26 11:49:00,SystemResetWarning,0814.9,5.00,000.00,025.0,024.3,000.0,033.6,026.9,015.6,0000.0,0002.89,0001.85,0001.32
2024-04-26 11:50:00,SystemResetWarning,0814.9,5.01,000.00,025.0,024.3,000.0,033.6,026.8,016.8,0000.0,0002.85,0001.86,0001.32
2024-04-26 11:51:00,SystemResetWarning,0815.0,5.01,000.00,025.0,024.3,000.0,033.6,026.9,017.9,0000.0,0002.86,0001.85,0001.30
2024-04-26 11:52:00,SystemResetWarning,0815.0,5.00,000.00,025.0,024.3,000.0,033.6,026.9,017.9,0000.0,0002.96,0001.84,0001.29
2024-04-26 11:53:00,SystemResetWarning,0814.9,5.00,000.00,025.0,024.3,000.0,033.6,026.9,017.3,0000.0,0003.14,0001.81,0001.28
2024-04-26 11:54:00,SystemResetWarning,0814.9,4.99,000.00,025.0,024.3,000.0,033.6,026.9,019.5,0000.0,0003.08,0001.78,0001.26
2024-04-26 11:55:00,SystemResetWarning,0815.0,4.99,000.00,025.0,024.3,000.0,033.6,026.9,020.7,0000.0,0003.20,0001.79,0001.25
2024-04-26 11:56:00,SystemResetWarning,0814.9,5.00,000.00,025.0,024.3,000.0,033.6,026.9,021.2,0000.0,0003.59,0001.90,0001.27
2024-04-26 11:57:00,SystemResetWarning,0815.0,5.01,000.00,025.0,024.3,000.0,033.6,026.9,021.4,0000.0,0004.08,0002.02,0001.29
2024-04-26 11:58:00,SystemResetWarning,0815.0,5.01,000.00,025.0,024.3,000.0,033.6,026.9,020.5,0000.0,0004.66,0002.07,0001.29
2024-04-26 11:59:00,SystemResetWarning,0814.9,4.99,000.00,025.0,024.3,000.0,033.6,026.9,018.4,0000.0,0004.96,0002.05,0001.28
